owner,sensor,date,latitude,longitude,vertical_datum,direction_of_sea_water_velocity,sea_water_speed,upward_sea_water_velocity,qcFlag 
TABS,ioos:station:wmo:42050:1,1996-12-01T00:00:00Z,28.8425,-94.2433,2.0,170.6242435,17.3720609,-99999.0,'11111222,11111222,99999999' 
TABS,ioos:station:wmo:42050:1,1996-12-01T00:30:00Z,28.8425,-94.2433,2.0,173.3100679,16.65338404,-99999.0,'11111222,11111222,99999999' 
TABS,ioos:station:wmo:42050:1,1996-12-01T01:00:00Z,28.8425,-94.2433,2.0,180.9530401,18.03249567,-99999.0,'11111222,11111222,99999999' 
TABS,ioos:station:wmo:42050:1,1996-12-01T01:30:00Z,28.8425,-94.2433,2.0,179.9997895,21.16,-99999.0,'11111222,11111222,99999999' 
TABS,ioos:station:wmo:42050:1,1996-12-01T02:00:00Z,28.8425,-94.2433,2.0,186.0575682,23.97387119,-99999.0,'11111222,11111222,99999999' 
TABS,ioos:station:wmo:42050:1,1996-12-01T02:30:00Z,28.8425,-94.2433,2.0,186.0199703,24.12303878,-99999.0,'11111222,11111222,99999999' 
TABS,ioos:station:wmo:42050:1,1996-12-01T03:00:00Z,28.8425,-94.2433,2.0,193.7636484,21.94002051,-99999.0,'11111222,11111222,99999999' 
TABS,ioos:station:wmo:42050:1,1996-12-01T03:30:00Z,28.8425,-94.2433,2.0,190.0938656,20.42617194,-99999.0,'11111222,11111222,99999999' 
TABS,ioos:station:wmo:42050:1,1996-12-01T04:00:00Z,28.8425,-94.2433,2.0,191.7944001,20.40073038,-99999.0,'11111222,11111222,99999999' 
TABS,ioos:station:wmo:42050:1,1996-12-01T04:30:00Z,28.8425,-94.2433,2.0,193.0960411,17.74144301,-99999.0,'11111222,11111222,99999999' 
TABS,ioos:station:wmo:42050:1,1996-12-01T05:00:00Z,28.8425,-94.2433,2.0,190.226938,18.47351618,-99999.0,'11111222,11111222,99999999' 
TABS,ioos:station:wmo:42050:1,1996-12-01T05:30:00Z,28.8425,-94.2433,2.0,185.5622984,21.56153288,-99999.0,'11111222,11111222,99999999' 
TABS,ioos:station:wmo:42050:1,1996-12-01T06:00:00Z,28.8425,-94.2433,2.0,184.3760054,23.45839295,-99999.0,'11111222,11111222,99999999' 
TABS,ioos:station:wmo:42050:1,1996-12-01T06:30:00Z,28.8425,-94.2433,2.0,188.5332214,21.09351796,-99999.0,'11111222,11111222,99999999' 
TABS,ioos:station:wmo:42050:1,1996-12-01T07:00:00Z,28.8425,-94.2433,2.0,179.9997895,23.84,-99999.0,'11111222,11111222,99999999' 
TABS,ioos:station:wmo:42050:1,1996-12-01T07:30:00Z,28.8425,-94.2433,2.0,191.4182099,16.56792081,-99999.0,'11111222,11111222,99999999' 
TABS,ioos:station:wmo:42050:1,1996-12-01T08:00:00Z,28.8425,-94.2433,2.0,165.797264,13.36861997,-99999.0,'11111222,11111222,99999999' 
TABS,ioos:station:wmo:42050:1,1996-12-01T08:30:00Z,28.8425,-94.2433,2.0,162.4271514,12.81816289,-99999.0,'11111222,11111222,99999999' 
TABS,ioos:station:wmo:42050:1,1996-12-01T09:00:00Z,28.8425,-94.2433,2.0,157.8397074,9.491074755,-99999.0,'11133222,11111222,99999999' 
TABS,ioos:station:wmo:42050:1,1996-12-01T09:30:00Z,28.8425,-94.2433,2.0,127.949661,6.049074309,-99999.0,'11133222,11111222,99999999' 
TABS,ioos:station:wmo:42050:1,1996-12-01T10:00:00Z,28.8425,-94.2433,2.0,115.0562767,5.265529413,-99999.0,'11133222,11111222,99999999' 
TABS,ioos:station:wmo:42050:1,1996-12-01T10:30:00Z,28.8425,-94.2433,2.0,146.2505499,2.681976883,-99999.0,'11133222,11111222,99999999' 
TABS,ioos:station:wmo:42050:1,1996-12-01T11:00:00Z,28.8425,-94.2433,2.0,122.8228151,5.497708614,-99999.0,'11133222,11111222,99999999' 
TABS,ioos:station:wmo:42050:1,1996-12-01T11:30:00Z,28.8425,-94.2433,2.0,52.47433902,2.446160256,-99999.0,'11133222,11111222,99999999' 
TABS,ioos:station:wmo:42050:1,1996-12-01T12:00:00Z,28.8425,-94.2433,2.0,110.520911,3.822564584,-99999.0,'11133222,11111222,99999999' 
TABS,ioos:station:wmo:42050:1,1996-12-01T12:30:00Z,28.8425,-94.2433,2.0,47.88168222,8.439383864,-99999.0,'11133222,11111222,99999999' 
TABS,ioos:station:wmo:42050:1,1996-12-01T13:00:00Z,28.8425,-94.2433,2.0,56.02219917,7.729844759,-99999.0,'11133222,11111222,99999999' 
TABS,ioos:station:wmo:42050:1,1996-12-01T13:30:00Z,28.8425,-94.2433,2.0,49.06943806,8.868263641,-99999.0,'11133222,11111222,99999999' 
TABS,ioos:station:wmo:42050:1,1996-12-01T14:00:00Z,28.8425,-94.2433,2.0,67.21111038,8.080804415,-99999.0,'11133222,11111222,99999999' 
TABS,ioos:station:wmo:42050:1,1996-12-01T14:30:00Z,28.8425,-94.2433,2.0,62.01180942,10.80354109,-99999.0,'11111222,11111222,99999999' 
TABS,ioos:station:wmo:42050:1,1996-12-01T15:00:00Z,28.8425,-94.2433,2.0,66.4690435,6.336955105,-99999.0,'11133222,11111222,99999999' 
TABS,ioos:station:wmo:42050:1,1996-12-01T15:30:00Z,28.8425,-94.2433,2.0,89.03875386,8.941258301,-99999.0,'11133222,11111222,99999999' 
TABS,ioos:station:wmo:42050:1,1996-12-01T16:00:00Z,28.8425,-94.2433,2.0,61.62872758,4.398295124,-99999.0,'11133222,11111222,99999999' 
TABS,ioos:station:wmo:42050:1,1996-12-01T16:30:00Z,28.8425,-94.2433,2.0,90.0,5.96,-99999.0,'11133222,11111222,99999999' 
TABS,ioos:station:wmo:42050:1,1996-12-01T17:00:00Z,28.8425,-94.2433,2.0,74.3913626,10.51788001,-99999.0,'11111222,11111222,99999999' 
TABS,ioos:station:wmo:42050:1,1996-12-01T17:30:00Z,28.8425,-94.2433,2.0,77.56116758,11.74571411,-99999.0,'11111222,11111222,99999999' 
TABS,ioos:station:wmo:42050:1,1996-12-01T18:00:00Z,28.8425,-94.2433,2.0,224.9996843,14.12799349,-99999.0,'11111222,11111222,99999999' 
TABS,ioos:station:wmo:42050:1,1996-12-01T18:30:00Z,28.8425,-94.2433,2.0,224.9996843,14.12799349,-99999.0,'11111222,11111222,99999999' 
TABS,ioos:station:wmo:42050:1,1996-12-01T19:00:00Z,28.8425,-94.2433,2.0,224.9996843,14.12799349,-99999.0,'11111222,11111222,99999999' 
TABS,ioos:station:wmo:42050:1,1996-12-01T19:30:00Z,28.8425,-94.2433,2.0,224.9996843,14.12799349,-99999.0,'11111222,11111222,99999999' 
TABS,ioos:station:wmo:42050:1,1996-12-01T20:00:00Z,28.8425,-94.2433,2.0,224.9996843,14.12799349,-99999.0,'11111222,11111222,99999999' 
TABS,ioos:station:wmo:42050:1,1996-12-01T20:30:00Z,28.8425,-94.2433,2.0,224.9996843,14.12799349,-99999.0,'11111222,11111222,99999999' 
TABS,ioos:station:wmo:42050:1,1996-12-01T21:00:00Z,28.8425,-94.2433,2.0,74.39377339,17.17311853,-99999.0,'11111222,11111222,99999999' 
TABS,ioos:station:wmo:42050:1,1996-12-01T21:30:00Z,28.8425,-94.2433,2.0,63.43501094,15.98788604,-99999.0,'11111222,11111222,99999999' 
TABS,ioos:station:wmo:42050:1,1996-12-01T22:00:00Z,28.8425,-94.2433,2.0,115.6306729,12.06742723,-99999.0,'11111222,11111222,99999999' 
TABS,ioos:station:wmo:42050:1,1996-12-01T22:30:00Z,28.8425,-94.2433,2.0,110.9902059,9.575411218,-99999.0,'11133222,11111222,99999999' 
TABS,ioos:station:wmo:42050:1,1996-12-01T23:00:00Z,28.8425,-94.2433,2.0,120.2513837,8.277161349,-99999.0,'11133222,11111222,99999999' 
TABS,ioos:station:wmo:42050:1,1996-12-01T23:30:00Z,28.8425,-94.2433,2.0,140.1153453,13.00599862,-99999.0,'11111222,11111222,99999999' 
TABS,ioos:station:wmo:42050:1,1996-12-02T00:00:00Z,28.8425,-94.2433,2.0,140.6624538,11.75289752,-99999.0,'11111222,11111222,99999999' 
TABS,ioos:station:wmo:42050:1,1996-12-02T00:30:00Z,28.8425,-94.2433,2.0,143.5133449,9.266207423,-99999.0,'11133222,11111222,99999999' 
TABS,ioos:station:wmo:42050:1,1996-12-02T01:00:00Z,28.8425,-94.2433,2.0,224.9996843,14.12799349,-99999.0,'11111222,11111222,99999999' 
TABS,ioos:station:wmo:42050:1,1996-12-02T01:30:00Z,28.8425,-94.2433,2.0,224.9996843,14.12799349,-99999.0,'11111222,11111222,99999999' 
TABS,ioos:station:wmo:42050:1,1996-12-02T02:00:00Z,28.8425,-94.2433,2.0,224.9996843,14.12799349,-99999.0,'11111222,11111222,99999999' 
TABS,ioos:station:wmo:42050:1,1996-12-02T02:30:00Z,28.8425,-94.2433,2.0,224.9996843,14.12799349,-99999.0,'11111222,11111222,99999999' 
TABS,ioos:station:wmo:42050:1,1996-12-02T03:00:00Z,28.8425,-94.2433,2.0,224.9996843,14.12799349,-99999.0,'11111222,11111222,99999999' 
TABS,ioos:station:wmo:42050:1,1996-12-02T03:30:00Z,28.8425,-94.2433,2.0,224.9996843,14.12799349,-99999.0,'11111222,11111222,99999999' 
TABS,ioos:station:wmo:42050:1,1996-12-02T04:00:00Z,28.8425,-94.2433,2.0,184.8547898,14.06044807,-99999.0,'11111222,11111222,99999999' 
TABS,ioos:station:wmo:42050:1,1996-12-02T04:30:00Z,28.8425,-94.2433,2.0,198.5465167,21.06397161,-99999.0,'11111222,11111222,99999999' 
TABS,ioos:station:wmo:42050:1,1996-12-02T05:00:00Z,28.8425,-94.2433,2.0,201.9625438,19.11741091,-99999.0,'11111222,11111222,99999999' 
TABS,ioos:station:wmo:42050:1,1996-12-02T05:30:00Z,28.8425,-94.2433,2.0,209.8671668,18.5543984,-99999.0,'11111222,11111222,99999999' 
TABS,ioos:station:wmo:42050:1,1996-12-02T06:00:00Z,28.8425,-94.2433,2.0,213.58417,25.580043,-99999.0,'11111222,11111222,99999999' 
TABS,ioos:station:wmo:42050:1,1996-12-02T06:30:00Z,28.8425,-94.2433,2.0,222.7702418,24.35705237,-99999.0,'11111222,11111222,99999999' 
TABS,ioos:station:wmo:42050:1,1996-12-02T07:00:00Z,28.8425,-94.2433,2.0,213.9845855,24.795427,-99999.0,'11111222,11111222,99999999' 
TABS,ioos:station:wmo:42050:1,1996-12-02T07:30:00Z,28.8425,-94.2433,2.0,224.7973224,30.0310123,-99999.0,'11111222,11111222,99999999' 
TABS,ioos:station:wmo:42050:1,1996-12-02T08:00:00Z,28.8425,-94.2433,2.0,224.9996843,14.12799349,-99999.0,'11111222,11111222,99999999' 
TABS,ioos:station:wmo:42050:1,1996-12-02T08:30:00Z,28.8425,-94.2433,2.0,224.9996843,14.12799349,-99999.0,'11111222,11111222,99999999' 
TABS,ioos:station:wmo:42050:1,1996-12-02T09:00:00Z,28.8425,-94.2433,2.0,224.9996843,14.12799349,-99999.0,'11111222,11111222,99999999' 
TABS,ioos:station:wmo:42050:1,1996-12-02T09:30:00Z,28.8425,-94.2433,2.0,224.9996843,14.12799349,-99999.0,'11111222,11111222,99999999' 
TABS,ioos:station:wmo:42050:1,1996-12-02T10:00:00Z,28.8425,-94.2433,2.0,224.9996843,14.12799349,-99999.0,'11111222,11111222,99999999' 
TABS,ioos:station:wmo:42050:1,1996-12-02T10:30:00Z,28.8425,-94.2433,2.0,224.9996843,14.12799349,-99999.0,'11111222,11111222,99999999' 
TABS,ioos:station:wmo:42050:1,1996-12-02T11:00:00Z,28.8425,-94.2433,2.0,224.9996843,14.12799349,-99999.0,'11111222,11111222,99999999' 
TABS,ioos:station:wmo:42050:1,1996-12-02T11:30:00Z,28.8425,-94.2433,2.0,256.8361228,35.34881752,-99999.0,'11111222,11111222,99999999' 
TABS,ioos:station:wmo:42050:1,1996-12-02T12:00:00Z,28.8425,-94.2433,2.0,260.4185485,34.90691192,-99999.0,'11111222,11111222,99999999' 
TABS,ioos:station:wmo:42050:1,1996-12-02T12:30:00Z,28.8425,-94.2433,2.0,259.3002607,35.3342893,-99999.0,'11111222,11111222,99999999' 
TABS,ioos:station:wmo:42050:1,1996-12-02T13:00:00Z,28.8425,-94.2433,2.0,261.7918764,32.36147864,-99999.0,'11111222,11111222,99999999' 
TABS,ioos:station:wmo:42050:1,1996-12-02T13:30:00Z,28.8425,-94.2433,2.0,267.055642,31.93214211,-99999.0,'11111222,11111222,99999999' 
TABS,ioos:station:wmo:42050:1,1996-12-02T14:00:00Z,28.8425,-94.2433,2.0,268.804433,28.76625801,-99999.0,'11111222,11111222,99999999' 
TABS,ioos:station:wmo:42050:1,1996-12-02T14:30:00Z,28.8425,-94.2433,2.0,269.6826816,27.12041482,-99999.0,'11111222,11111222,99999999' 
TABS,ioos:station:wmo:42050:1,1996-12-02T15:00:00Z,28.8425,-94.2433,2.0,272.7387608,24.90844234,-99999.0,'11111222,11111222,99999999' 
TABS,ioos:station:wmo:42050:1,1996-12-02T15:30:00Z,28.8425,-94.2433,2.0,274.0631028,23.14816839,-99999.0,'11111222,11111222,99999999' 
TABS,ioos:station:wmo:42050:1,1996-12-02T16:00:00Z,28.8425,-94.2433,2.0,224.9996843,14.12799349,-99999.0,'11111222,11111222,99999999' 
TABS,ioos:station:wmo:42050:1,1996-12-02T16:30:00Z,28.8425,-94.2433,2.0,224.9996843,14.12799349,-99999.0,'11111222,11111222,99999999' 
TABS,ioos:station:wmo:42050:1,1996-12-02T17:00:00Z,28.8425,-94.2433,2.0,224.9996843,14.12799349,-99999.0,'11111222,11111222,99999999' 
TABS,ioos:station:wmo:42050:1,1996-12-02T17:30:00Z,28.8425,-94.2433,2.0,224.9996843,14.12799349,-99999.0,'11111222,11111222,99999999' 
TABS,ioos:station:wmo:42050:1,1996-12-02T18:00:00Z,28.8425,-94.2433,2.0,224.9996843,14.12799349,-99999.0,'11111222,11111222,99999999' 
TABS,ioos:station:wmo:42050:1,1996-12-02T18:30:00Z,28.8425,-94.2433,2.0,262.6785936,10.51572632,-99999.0,'11111222,11111222,99999999' 
TABS,ioos:station:wmo:42050:1,1996-12-02T19:00:00Z,28.8425,-94.2433,2.0,280.6221241,16.98095993,-99999.0,'11111222,11111222,99999999' 
TABS,ioos:station:wmo:42050:1,1996-12-02T19:30:00Z,28.8425,-94.2433,2.0,278.5248986,18.07973451,-99999.0,'11111222,11111222,99999999' 
TABS,ioos:station:wmo:42050:1,1996-12-02T20:00:00Z,28.8425,-94.2433,2.0,269.4341799,15.20074011,-99999.0,'11111222,11111222,99999999' 
TABS,ioos:station:wmo:42050:1,1996-12-02T20:30:00Z,28.8425,-94.2433,2.0,255.9759333,11.05962477,-99999.0,'11111222,11111222,99999999' 
TABS,ioos:station:wmo:42050:1,1996-12-02T21:00:00Z,28.8425,-94.2433,2.0,251.7986512,12.38990718,-99999.0,'11111222,11111222,99999999' 
TABS,ioos:station:wmo:42050:1,1996-12-02T21:30:00Z,28.8425,-94.2433,2.0,245.4233783,11.46899298,-99999.0,'11111222,11111222,99999999' 
TABS,ioos:station:wmo:42050:1,1996-12-02T22:00:00Z,28.8425,-94.2433,2.0,242.6706934,10.06320029,-99999.0,'11111222,11111222,99999999' 
TABS,ioos:station:wmo:42050:1,1996-12-02T22:30:00Z,28.8425,-94.2433,2.0,252.3923218,9.851522725,-99999.0,'11133222,11111222,99999999' 
TABS,ioos:station:wmo:42050:1,1996-12-02T23:00:00Z,28.8425,-94.2433,2.0,236.5587777,8.927984095,-99999.0,'11133222,11111222,99999999' 
TABS,ioos:station:wmo:42050:1,1996-12-02T23:30:00Z,28.8425,-94.2433,2.0,240.8161867,7.341968401,-99999.0,'11133222,11111222,99999999' 
TABS,ioos:station:wmo:42050:1,1996-12-03T00:00:00Z,28.8425,-94.2433,2.0,236.5445448,9.468811963,-99999.0,'11133222,11111222,99999999' 
TABS,ioos:station:wmo:42050:1,1996-12-03T00:30:00Z,28.8425,-94.2433,2.0,235.4113682,8.138451941,-99999.0,'11133222,11111222,99999999' 
TABS,ioos:station:wmo:42050:1,1996-12-03T01:00:00Z,28.8425,-94.2433,2.0,233.3448942,7.99005632,-99999.0,'11133222,11111222,99999999' 
TABS,ioos:station:wmo:42050:1,1996-12-03T01:30:00Z,28.8425,-94.2433,2.0,219.5658491,8.885837046,-99999.0,'11133222,11111222,99999999' 
TABS,ioos:station:wmo:42050:1,1996-12-03T02:00:00Z,28.8425,-94.2433,2.0,219.8232681,8.150828179,-99999.0,'11133222,11111222,99999999' 
TABS,ioos:station:wmo:42050:1,1996-12-03T02:30:00Z,28.8425,-94.2433,2.0,215.5287254,7.692106344,-99999.0,'11133222,11111222,99999999' 
TABS,ioos:station:wmo:42050:1,1996-12-03T03:00:00Z,28.8425,-94.2433,2.0,215.8191638,9.927668407,-99999.0,'11133222,11111222,99999999' 
TABS,ioos:station:wmo:42050:1,1996-12-03T03:30:00Z,28.8425,-94.2433,2.0,205.2537417,11.5321854,-99999.0,'11111222,11111222,99999999' 
TABS,ioos:station:wmo:42050:1,1996-12-03T04:00:00Z,28.8425,-94.2433,2.0,202.4985766,11.28925595,-99999.0,'11111222,11111222,99999999' 
TABS,ioos:station:wmo:42050:1,1996-12-03T04:30:00Z,28.8425,-94.2433,2.0,191.2801262,11.40023245,-99999.0,'11111222,11111222,99999999' 
TABS,ioos:station:wmo:42050:1,1996-12-03T05:00:00Z,28.8425,-94.2433,2.0,193.7566054,14.42376511,-99999.0,'11111222,11111222,99999999' 
TABS,ioos:station:wmo:42050:1,1996-12-03T05:30:00Z,28.8425,-94.2433,2.0,192.2451039,17.53904216,-99999.0,'11111222,11111222,99999999' 
TABS,ioos:station:wmo:42050:1,1996-12-03T06:00:00Z,28.8425,-94.2433,2.0,193.660457,17.0215158,-99999.0,'11111222,11111222,99999999' 
TABS,ioos:station:wmo:42050:1,1996-12-03T06:30:00Z,28.8425,-94.2433,2.0,195.6646623,16.55489354,-99999.0,'11111222,11111222,99999999' 
TABS,ioos:station:wmo:42050:1,1996-12-03T07:00:00Z,28.8425,-94.2433,2.0,193.9199233,17.95737453,-99999.0,'11111222,11111222,99999999' 
TABS,ioos:station:wmo:42050:1,1996-12-03T07:30:00Z,28.8425,-94.2433,2.0,200.4906741,19.56812204,-99999.0,'11111222,11111222,99999999' 
TABS,ioos:station:wmo:42050:1,1996-12-03T08:00:00Z,28.8425,-94.2433,2.0,202.4501619,19.50854684,-99999.0,'11111222,11111222,99999999' 
TABS,ioos:station:wmo:42050:1,1996-12-03T08:30:00Z,28.8425,-94.2433,2.0,206.7078981,26.85526019,-99999.0,'11111222,11111222,99999999' 
TABS,ioos:station:wmo:42050:1,1996-12-03T09:00:00Z,28.8425,-94.2433,2.0,209.1885881,29.01433094,-99999.0,'11111222,11111222,99999999' 
TABS,ioos:station:wmo:42050:1,1996-12-03T09:30:00Z,28.8425,-94.2433,2.0,208.9188667,30.81218752,-99999.0,'11111222,11111222,99999999' 
TABS,ioos:station:wmo:42050:1,1996-12-03T10:00:00Z,28.8425,-94.2433,2.0,209.0274789,24.87463367,-99999.0,'11111222,11111222,99999999' 
TABS,ioos:station:wmo:42050:1,1996-12-03T10:30:00Z,28.8425,-94.2433,2.0,205.9397215,24.18675051,-99999.0,'11111222,11111222,99999999' 
TABS,ioos:station:wmo:42050:1,1996-12-03T11:00:00Z,28.8425,-94.2433,2.0,210.6317336,22.51128162,-99999.0,'11111222,11111222,99999999' 
TABS,ioos:station:wmo:42050:1,1996-12-03T11:30:00Z,28.8425,-94.2433,2.0,210.2410905,21.90039497,-99999.0,'11111222,11111222,99999999' 
TABS,ioos:station:wmo:42050:1,1996-12-03T12:00:00Z,28.8425,-94.2433,2.0,213.57485,20.74028206,-99999.0,'11111222,11111222,99999999' 
TABS,ioos:station:wmo:42050:1,1996-12-03T12:30:00Z,28.8425,-94.2433,2.0,213.2282229,20.65770558,-99999.0,'11111222,11111222,99999999' 
TABS,ioos:station:wmo:42050:1,1996-12-03T13:00:00Z,28.8425,-94.2433,2.0,212.634265,20.17509603,-99999.0,'11111222,11111222,99999999' 
TABS,ioos:station:wmo:42050:1,1996-12-03T13:30:00Z,28.8425,-94.2433,2.0,218.2514902,19.7377405,-99999.0,'11111222,11111222,99999999' 
TABS,ioos:station:wmo:42050:1,1996-12-03T14:00:00Z,28.8425,-94.2433,2.0,221.8792514,17.40649304,-99999.0,'11111222,11111222,99999999' 
TABS,ioos:station:wmo:42050:1,1996-12-03T14:30:00Z,28.8425,-94.2433,2.0,223.1797638,19.81605662,-99999.0,'11111222,11111222,99999999' 
TABS,ioos:station:wmo:42050:1,1996-12-03T15:00:00Z,28.8425,-94.2433,2.0,223.4616367,19.49488651,-99999.0,'11111222,11111222,99999999' 
TABS,ioos:station:wmo:42050:1,1996-12-03T15:30:00Z,28.8425,-94.2433,2.0,225.7895559,15.3881058,-99999.0,'11111222,11111222,99999999' 
TABS,ioos:station:wmo:42050:1,1996-12-03T16:00:00Z,28.8425,-94.2433,2.0,217.2620763,17.22640415,-99999.0,'11111222,11111222,99999999' 
TABS,ioos:station:wmo:42050:1,1996-12-03T16:30:00Z,28.8425,-94.2433,2.0,211.4955697,13.11163224,-99999.0,'11111222,11111222,99999999' 
TABS,ioos:station:wmo:42050:1,1996-12-03T17:00:00Z,28.8425,-94.2433,2.0,203.1983258,11.34750193,-99999.0,'11111222,11111222,99999999' 
TABS,ioos:station:wmo:42050:1,1996-12-03T17:30:00Z,28.8425,-94.2433,2.0,191.6573327,10.34335536,-99999.0,'11111222,11111222,99999999' 
TABS,ioos:station:wmo:42050:1,1996-12-03T18:00:00Z,28.8425,-94.2433,2.0,168.5077892,10.49030505,-99999.0,'11111222,11111222,99999999' 
TABS,ioos:station:wmo:42050:1,1996-12-03T18:30:00Z,28.8425,-94.2433,2.0,165.7918985,12.14138789,-99999.0,'11111222,11111222,99999999' 
TABS,ioos:station:wmo:42050:1,1996-12-03T19:00:00Z,28.8425,-94.2433,2.0,151.0571084,12.93560977,-99999.0,'11111222,11111222,99999999' 
TABS,ioos:station:wmo:42050:1,1996-12-03T19:30:00Z,28.8425,-94.2433,2.0,156.806353,14.75227779,-99999.0,'11111222,11111222,99999999' 
TABS,ioos:station:wmo:42050:1,1996-12-03T20:00:00Z,28.8425,-94.2433,2.0,169.3502805,15.31376505,-99999.0,'11111222,11111222,99999999' 
TABS,ioos:station:wmo:42050:1,1996-12-03T20:30:00Z,28.8425,-94.2433,2.0,171.6762223,13.40116413,-99999.0,'11111222,11111222,99999999' 
TABS,ioos:station:wmo:42050:1,1996-12-03T21:00:00Z,28.8425,-94.2433,2.0,160.6658376,11.68921725,-99999.0,'11111222,11111222,99999999' 
TABS,ioos:station:wmo:42050:1,1996-12-03T21:30:00Z,28.8425,-94.2433,2.0,163.0656628,10.74594342,-99999.0,'11111222,11111222,99999999' 
TABS,ioos:station:wmo:42050:1,1996-12-03T22:00:00Z,28.8425,-94.2433,2.0,163.8407419,11.78561835,-99999.0,'11111222,11111222,99999999' 
TABS,ioos:station:wmo:42050:1,1996-12-03T22:30:00Z,28.8425,-94.2433,2.0,161.7687821,13.32908474,-99999.0,'11111222,11111222,99999999' 
TABS,ioos:station:wmo:42050:1,1996-12-03T23:00:00Z,28.8425,-94.2433,2.0,158.8143105,12.78400563,-99999.0,'11111222,11111222,99999999' 
TABS,ioos:station:wmo:42050:1,1996-12-03T23:30:00Z,28.8425,-94.2433,2.0,158.0692051,13.1732608,-99999.0,'11111222,11111222,99999999' 
TABS,ioos:station:wmo:42050:1,1996-12-04T00:00:00Z,28.8425,-94.2433,2.0,152.8609067,13.39471911,-99999.0,'11111222,11111222,99999999' 
TABS,ioos:station:wmo:42050:1,1996-12-04T00:30:00Z,28.8425,-94.2433,2.0,149.1465547,14.23440901,-99999.0,'11111222,11111222,99999999' 
TABS,ioos:station:wmo:42050:1,1996-12-04T01:00:00Z,28.8425,-94.2433,2.0,151.0606601,14.46636098,-99999.0,'11111222,11111222,99999999' 
TABS,ioos:station:wmo:42050:1,1996-12-04T01:30:00Z,28.8425,-94.2433,2.0,161.0086329,14.65784773,-99999.0,'11111222,11111222,99999999' 
TABS,ioos:station:wmo:42050:1,1996-12-04T02:00:00Z,28.8425,-94.2433,2.0,176.0856615,15.2355374,-99999.0,'11111222,11111222,99999999' 
TABS,ioos:station:wmo:42050:1,1996-12-04T02:30:00Z,28.8425,-94.2433,2.0,174.8053728,16.45758792,-99999.0,'11111222,11111222,99999999' 
TABS,ioos:station:wmo:42050:1,1996-12-04T03:00:00Z,28.8425,-94.2433,2.0,171.2585881,17.63483201,-99999.0,'11111222,11111222,99999999' 
TABS,ioos:station:wmo:42050:1,1996-12-04T03:30:00Z,28.8425,-94.2433,2.0,165.6276036,18.61250386,-99999.0,'11111222,11111222,99999999' 
TABS,ioos:station:wmo:42050:1,1996-12-04T04:00:00Z,28.8425,-94.2433,2.0,178.5208845,17.43580798,-99999.0,'11111222,11111222,99999999' 
TABS,ioos:station:wmo:42050:1,1996-12-04T04:30:00Z,28.8425,-94.2433,2.0,185.5133057,17.06896892,-99999.0,'11111222,11111222,99999999' 
TABS,ioos:station:wmo:42050:1,1996-12-04T05:00:00Z,28.8425,-94.2433,2.0,183.9879337,19.26665513,-99999.0,'11111222,11111222,99999999' 
TABS,ioos:station:wmo:42050:1,1996-12-04T05:30:00Z,28.8425,-94.2433,2.0,182.8135684,21.18554224,-99999.0,'11111222,11111222,99999999' 
TABS,ioos:station:wmo:42050:1,1996-12-04T06:00:00Z,28.8425,-94.2433,2.0,188.1335356,22.1225428,-99999.0,'11111222,11111222,99999999' 
TABS,ioos:station:wmo:42050:1,1996-12-04T06:30:00Z,28.8425,-94.2433,2.0,191.4546008,23.26337035,-99999.0,'11111222,11111222,99999999' 
TABS,ioos:station:wmo:42050:1,1996-12-04T07:00:00Z,28.8425,-94.2433,2.0,192.6169251,23.21050193,-99999.0,'11111222,11111222,99999999' 
TABS,ioos:station:wmo:42050:1,1996-12-04T07:30:00Z,28.8425,-94.2433,2.0,191.5986106,23.72447049,-99999.0,'11111222,11111222,99999999' 
TABS,ioos:station:wmo:42050:1,1996-12-04T08:00:00Z,28.8425,-94.2433,2.0,194.2048688,25.51000784,-99999.0,'11111222,11111222,99999999' 
TABS,ioos:station:wmo:42050:1,1996-12-04T08:30:00Z,28.8425,-94.2433,2.0,194.9594116,24.83159681,-99999.0,'11111222,11111222,99999999' 
TABS,ioos:station:wmo:42050:1,1996-12-04T09:00:00Z,28.8425,-94.2433,2.0,198.0161756,25.54239809,-99999.0,'11111222,11111222,99999999' 
TABS,ioos:station:wmo:42050:1,1996-12-04T09:30:00Z,28.8425,-94.2433,2.0,200.3761771,23.52187493,-99999.0,'11111222,11111222,99999999' 
TABS,ioos:station:wmo:42050:1,1996-12-04T10:00:00Z,28.8425,-94.2433,2.0,205.9993794,20.39393292,-99999.0,'11111222,11111222,99999999' 
TABS,ioos:station:wmo:42050:1,1996-12-04T10:30:00Z,28.8425,-94.2433,2.0,213.9516065,17.600821,-99999.0,'11111222,11111222,99999999' 
TABS,ioos:station:wmo:42050:1,1996-12-04T11:00:00Z,28.8425,-94.2433,2.0,220.1225874,13.63997801,-99999.0,'11111222,11111222,99999999' 
TABS,ioos:station:wmo:42050:1,1996-12-04T11:30:00Z,28.8425,-94.2433,2.0,229.2002967,10.03960159,-99999.0,'11111222,11111222,99999999' 
TABS,ioos:station:wmo:42050:1,1996-12-04T12:00:00Z,28.8425,-94.2433,2.0,232.9053733,7.660058747,-99999.0,'11133222,11111222,99999999' 
TABS,ioos:station:wmo:42050:1,1996-12-04T12:30:00Z,28.8425,-94.2433,2.0,247.492869,9.352325914,-99999.0,'11133222,11111222,99999999' 
TABS,ioos:station:wmo:42050:1,1996-12-04T13:00:00Z,28.8425,-94.2433,2.0,248.9094612,7.030967217,-99999.0,'11133222,11111222,99999999' 
TABS,ioos:station:wmo:42050:1,1996-12-04T13:30:00Z,28.8425,-94.2433,2.0,253.1610684,6.697141181,-99999.0,'11133222,11111222,99999999' 
TABS,ioos:station:wmo:42050:1,1996-12-04T14:00:00Z,28.8425,-94.2433,2.0,278.4893449,4.064529493,-99999.0,'11133222,11111222,99999999' 
TABS,ioos:station:wmo:42050:1,1996-12-04T14:30:00Z,28.8425,-94.2433,2.0,275.0725419,5.089931237,-99999.0,'11133222,11111222,99999999' 
TABS,ioos:station:wmo:42050:1,1996-12-04T15:00:00Z,28.8425,-94.2433,2.0,283.7545878,6.89779675,-99999.0,'11133222,11111222,99999999' 
TABS,ioos:station:wmo:42050:1,1996-12-04T15:30:00Z,28.8425,-94.2433,2.0,270.0004209,5.22,-99999.0,'11133222,11111222,99999999' 
TABS,ioos:station:wmo:42050:1,1996-12-04T16:00:00Z,28.8425,-94.2433,2.0,259.0317325,3.942004566,-99999.0,'11133222,11111222,99999999' 